When you browse on this site, cookies collect data to enhance your experience and personalize the content and advertising you see.
Visit our Privacy Policy to learn more. By continuing to use the site, you agree to this use of cookies and data.
  • In Spain
  • List of Countries
  • For 7 days
  • Water Temperature
  • Weather Map
  • Weather Widgets
  • user-avatar
    Login

    Hourly Weather Kokchetaw

    Today, 4 June, Thursday

    Time Temperature Precipitation Wind Pressure Humidity
    00:00 +10°C° 0 mm 2 mps 740 mmHg 66%
    01:00 +10°C° 0 mm 1 mps 740 mmHg 68%
    02:00 +10°C° 0 mm 1 mps 740 mmHg 69%
    03:00 +10°C° 0 mm 1 mps 740 mmHg 69%
    04:00 +10°C° 0 mm 1 mps 740 mmHg 70%
    05:00 +10°C° 0 mm 1 mps 740 mmHg 70%
    06:00 +10°C° 0 mm 2 mps 740 mmHg 66%
    07:00 +12°C° 0 mm 3 mps 740 mmHg 62%
    08:00 +13°C° 0 mm 4 mps 740 mmHg 58%
    09:00 +14°C° 0.1 mm 5 mps 740 mmHg 56%
    10:00 +15°C° 0.1 mm 5 mps 740 mmHg 54%
    11:00 +15°C° 0.1 mm 6 mps 740 mmHg 51%
    12:00 +15°C° 0.1 mm 6 mps 740 mmHg 51%
    13:00 +15°C° 0.1 mm 6 mps 740 mmHg 52%
    14:00 +14°C° 0.1 mm 6 mps 740 mmHg 52%
    15:00 +14°C° 0 mm 6 mps 741 mmHg 49%
    16:00 +14°C° 0 mm 6 mps 741 mmHg 46%
    17:00 +14°C° 0 mm 7 mps 742 mmHg 43%
    18:00 +13°C° 0 mm 6 mps 742 mmHg 46%
    19:00 +12°C° 0 mm 5 mps 742 mmHg 49%
    20:00 +11°C° 0 mm 4 mps 742 mmHg 52%
    21:00 +10°C° 0 mm 4 mps 743 mmHg 55%
    22:00 +9°C° 0 mm 3 mps 743 mmHg 58%
    23:00 +8°C° 0 mm 3 mps 744 mmHg 62%

    Tomorrow, 5 June, Friday

    Time Temperature Precipitation Wind Pressure Humidity
    00:00 +8°C° 0 mm 3 mps 744 mmHg 65%
    01:00 +7°C° 0 mm 3 mps 744 mmHg 68%
    02:00 +7°C° 0 mm 3 mps 743 mmHg 71%
    03:00 +7°C° 0 mm 3 mps 744 mmHg 72%
    04:00 +7°C° 0 mm 3 mps 744 mmHg 72%
    05:00 +7°C° 0 mm 3 mps 744 mmHg 73%
    06:00 +8°C° 0 mm 3 mps 745 mmHg 66%
    07:00 +10°C° 0 mm 4 mps 745 mmHg 59%
    08:00 +12°C° 0 mm 5 mps 745 mmHg 51%
    09:00 +13°C° 0 mm 5 mps 745 mmHg 49%
    10:00 +14°C° 0 mm 6 mps 745 mmHg 47%
    11:00 +15°C° 0 mm 6 mps 745 mmHg 44%
    12:00 +16°C° 0 mm 6 mps 745 mmHg 44%
    13:00 +16°C° 0 mm 6 mps 745 mmHg 43%
    14:00 +17°C° 0 mm 6 mps 745 mmHg 42%
    15:00 +17°C° 0 mm 6 mps 745 mmHg 42%
    16:00 +17°C° 0 mm 6 mps 745 mmHg 42%
    17:00 +19°C° 0 mm 5 mps 745 mmHg 42%
    18:00 +17°C° 0 mm 4 mps 745 mmHg 47%
    19:00 +15°C° 0 mm 4 mps 745 mmHg 53%
    20:00 +14°C° 0 mm 3 mps 745 mmHg 59%
    21:00 +14°C° 0 mm 2 mps 745 mmHg 61%
    22:00 +13°C° 0 mm 2 mps 746 mmHg 64%
    23:00 +12°C° 0 mm 2 mps 746 mmHg 66%

    Day after tomorrow, 6 June, Saturday

    Time Temperature Precipitation Wind Pressure Humidity
    00:00 +12°C° 0 mm 2 mps 746 mmHg 68%
    01:00 +12°C° 0 mm 2 mps 746 mmHg 70%
    02:00 +11°C° 0 mm 1 mps 746 mmHg 72%
    03:00 +10°C° 0 mm 2 mps 746 mmHg 73%
    04:00 +10°C° 0 mm 2 mps 747 mmHg 75%
    05:00 +10°C° 0 mm 2 mps 747 mmHg 77%
    06:00 +13°C° 0 mm 2 mps 747 mmHg 70%
    07:00 +15°C° 0 mm 2 mps 747 mmHg 63%
    08:00 +16°C° 0 mm 3 mps 747 mmHg 56%
    09:00 +18°C° 0 mm 3 mps 747 mmHg 52%
    10:00 +19°C° 0 mm 3 mps 748 mmHg 48%
    11:00 +20°C° 0 mm 4 mps 748 mmHg 44%
    12:00 +21°C° 0 mm 3 mps 747 mmHg 41%
    13:00 +22°C° 0 mm 3 mps 747 mmHg 39%
    14:00 +22°C° 0 mm 3 mps 747 mmHg 36%
    15:00 +22°C° 0 mm 3 mps 747 mmHg 37%
    16:00 +22°C° 0 mm 3 mps 747 mmHg 38%
    17:00 +22°C° 0 mm 3 mps 747 mmHg 38%
    18:00 +21°C° 0 mm 2 mps 747 mmHg 44%
    19:00 +20°C° 0 mm 2 mps 747 mmHg 49%
    20:00 +19°C° 0 mm 2 mps 747 mmHg 54%
    21:00 +19°C° 0 mm 1 mps 747 mmHg 57%
    22:00 +18°C° 0 mm 1 mps 747 mmHg 59%
    23:00 +18°C° 0 mm 1 mps 747 mmHg 61%

    7 June, Sunday

    Time Temperature Precipitation Wind Pressure Humidity
    00:00 +16°C° 0 mm 1 mps 747 mmHg 63%
    01:00 +14°C° 0 mm 0 mps 747 mmHg 65%
    02:00 +14°C° 0 mm 0 mps 747 mmHg 67%
    03:00 +14°C° 0 mm 0 mps 747 mmHg 68%
    04:00 +14°C° 0 mm 0 mps 748 mmHg 69%
    05:00 +14°C° 0 mm 0 mps 748 mmHg 70%
    06:00 +18°C° 0 mm 1 mps 748 mmHg 64%
    07:00 +19°C° 0 mm 1 mps 748 mmHg 59%
    08:00 +21°C° 0 mm 1 mps 748 mmHg 54%
    09:00 +21°C° 0 mm 2 mps 748 mmHg 50%
    10:00 +23°C° 0 mm 2 mps 748 mmHg 46%
    11:00 +24°C° 0 mm 2 mps 748 mmHg 42%
    12:00 +25°C° 0 mm 2 mps 748 mmHg 40%
    13:00 +25°C° 0 mm 2 mps 747 mmHg 37%
    14:00 +26°C° 0 mm 2 mps 747 mmHg 35%
    15:00 +26°C° 0 mm 2 mps 747 mmHg 35%
    16:00 +26°C° 0 mm 2 mps 747 mmHg 34%
    17:00 +26°C° 0 mm 2 mps 747 mmHg 34%
    18:00 +25°C° 0 mm 2 mps 747 mmHg 40%
    19:00 +24°C° 0 mm 2 mps 746 mmHg 45%
    20:00 +21°C° 0 mm 2 mps 746 mmHg 50%
    21:00 +20°C° 0 mm 2 mps 746 mmHg 52%
    22:00 +20°C° 0 mm 1 mps 746 mmHg 54%
    23:00 +19°C° 0 mm 1 mps 747 mmHg 56%

    8 June, Monday

    Time Temperature Precipitation Wind Pressure Humidity
    00:00 +19°C° 0 mm 1 mps 747 mmHg 57%
    01:00 +16°C° 0 mm 0 mps 747 mmHg 59%
    02:00 +16°C° 0 mm 0 mps 747 mmHg 60%
    03:00 +16°C° 0 mm 0 mps 747 mmHg 61%
    04:00 +16°C° 0 mm 0 mps 746 mmHg 62%
    05:00 +16°C° 0 mm 0 mps 746 mmHg 63%
    06:00 +19°C° 0 mm 1 mps 746 mmHg 58%
    07:00 +21°C° 0 mm 1 mps 747 mmHg 53%
    08:00 +23°C° 0 mm 2 mps 747 mmHg 48%
    09:00 +24°C° 0 mm 2 mps 746 mmHg 44%
    10:00 +25°C° 0 mm 3 mps 746 mmHg 40%
    11:00 +26°C° 0 mm 4 mps 746 mmHg 36%
    12:00 +27°C° 0 mm 4 mps 746 mmHg 34%
    13:00 +27°C° 0 mm 4 mps 746 mmHg 33%
    14:00 +27°C° 0 mm 4 mps 746 mmHg 32%
    15:00 +27°C° 0 mm 4 mps 745 mmHg 33%
    16:00 +27°C° 0 mm 4 mps 745 mmHg 34%
    17:00 +27°C° 0 mm 4 mps 744 mmHg 34%
    18:00 +26°C° 0 mm 4 mps 744 mmHg 41%
    19:00 +23°C° 0 mm 4 mps 744 mmHg 47%
    20:00 +22°C° 0 mm 3 mps 744 mmHg 53%
    21:00 +21°C° 0 mm 3 mps 744 mmHg 55%
    22:00 +19°C° 0 mm 2 mps 744 mmHg 57%
    23:00 +18°C° 0 mm 2 mps 744 mmHg 59%

    9 June, Tuesday

    Time Temperature Precipitation Wind Pressure Humidity
    00:00 +18°C° 0 mm 2 mps 744 mmHg 60%
    01:00 +17°C° 0 mm 2 mps 745 mmHg 61%
    02:00 +16°C° 0 mm 1 mps 745 mmHg 63%
    03:00 +16°C° 0 mm 2 mps 744 mmHg 64%
    04:00 +16°C° 0 mm 2 mps 744 mmHg 66%
    05:00 +16°C° 0 mm 2 mps 744 mmHg 67%
    06:00 +18°C° 0 mm 3 mps 744 mmHg 64%
    07:00 +19°C° 0 mm 4 mps 745 mmHg 60%
    08:00 +21°C° 0 mm 4 mps 745 mmHg 56%
    09:00 +22°C° 0 mm 4 mps 745 mmHg 53%
    10:00 +23°C° 0 mm 4 mps 744 mmHg 50%
    11:00 +25°C° 0 mm 4 mps 744 mmHg 47%
    12:00 +25°C° 0 mm 5 mps 744 mmHg 47%
    13:00 +26°C° 0 mm 5 mps 744 mmHg 47%
    14:00 +26°C° 0 mm 5 mps 744 mmHg 46%
    15:00 +26°C° 0 mm 5 mps 744 mmHg 46%
    16:00 +26°C° 0 mm 5 mps 744 mmHg 46%
    17:00 +27°C° 0 mm 5 mps 744 mmHg 45%
    18:00 +25°C° 0.2 mm 4 mps 743 mmHg 52%
    19:00 +24°C° 0.2 mm 3 mps 743 mmHg 58%
    20:00 +22°C° 0.2 mm 3 mps 743 mmHg 65%
    21:00 +20°C° 1.2 mm 2 mps 743 mmHg 71%
    22:00 +19°C° 1.2 mm 2 mps 743 mmHg 78%
    23:00 +18°C° 1.2 mm 2 mps 743 mmHg 84%
    Show more